DW3897 Weather Reports


time (UTC)temp
C
wind
direction
speed
KPH
gust
KPH
rain 1hr
cm
rain 24hr
cm
rain mn
cm
humidity
%
barometer
mb
20260507000043 7 80 0.0 3.2 0.08 1.83 1.78 98 1008.4
20260506234542 7 91 0.0 3.2 0.10 1.83 1.78 98 1008.0
20260506233024 7 326 0.0 0.0 0.08 1.80 1.75 98 1007.7
20260506231506 7 317 0.0 0.0 0.05 1.78 1.73 98 1007.5
20260506230006 7 317 0.0 0.0 0.03 1.75 1.70 98 1007.5
20260506224604 7 317 0.0 0.0 0.00 1.73 1.68 98 1007.2
20260506223051 7 317 0.0 0.0 0.03 1.73 1.68 98 1007.0
20260506221529 7 317 0.0 0.0 0.03 1.73 1.68 98 1006.7
20260506220035 7 317 0.0 0.0 0.05 1.73 1.68 98 1006.1
20260506214512 7 107 0.0 6.4 0.05 1.73 1.68 98 1006.1
20260506213011 7 107 0.0 3.2 0.05 1.70 1.65 98 1005.8
20260506211557 7 108 0.0 0.0 0.10 1.70 1.65 98 1005.7
20260506210052 7 113 0.0 1.6 0.13 1.68 1.63 97 1005.6
20260506204538 7 122 0.0 4.8 0.13 1.68 1.63 97 1005.4
20260506203034 8 101 0.0 6.4 0.10 1.65 1.60 97 1004.9
20260506201516 8 55 1.6 9.7 0.05 1.60 1.55 97 1004.7
20260506200013 8 244 1.6 14.5 0.00 1.55 1.50 97 1004.5
20260506194554 8 296 0.0 6.4 0.03 1.55 1.50 96 1005.1
20260506193053 10 94 0.0 9.7 0.05 1.55 1.50 97 1004.9
20260506191529 10 61 0.0 1.6 0.13 1.55 1.50 97 1004.8
20260506190027 11 67 0.0 0.0 0.23 1.55 1.50 97 1004.6
20260506184508 11 63 0.0 0.0 0.28 1.52 1.45 97 1004.7
20260506183005 11 63 0.0 0.0 0.28 1.50 1.42 97 1004.7
20260506181613 12 61 0.0 1.6 0.25 1.42 1.37 98 1004.8
20260506180052 12 61 0.0 1.6 0.20 1.32 1.27 98 1004.8
20260506174551 12 61 0.0 0.0 0.20 1.24 1.19 98 1004.7
20260506173120 12 61 0.0 0.0 0.25 1.22 1.17 98 1004.7
20260506171555 12 61 0.0 0.0 0.23 1.14 1.09 97 1004.9
20260506170055 12 63 0.0 3.2 0.25 1.12 1.07 97 1005.1
20260506164548 12 297 0.0 0.0 0.23 1.04 0.99 98 1005.4
20260506163045 12 296 0.0 4.8 0.23 0.97 0.91 98 1005.5
20260506161524 13 253 0.0 0.0 0.23 0.91 0.86 98 1005.4
20260506160034 12 253 0.0 0.0 0.20 0.84 0.79 98 1005.9
20260506154510 12 253 0.0 0.0 0.25 0.81 0.76 98 1006.0
20260506153003 12 253 0.0 0.0 0.23 0.71 0.69 98 1006.1
20260506151546 12 253 0.0 3.2 0.25 0.69 0.64 97 1006.1
20260506150049 12 253 0.0 0.0 0.25 0.64 0.58 97 1006.1
20260506144524 12 253 0.0 0.0 0.23 0.56 0.51 97 1006.6
20260506143025 12 253 0.0 0.0 0.25 0.51 0.46 97 1006.9
20260506141506 12 253 0.0 0.0 0.18 0.43 0.38 97 1007.1
20260506140005 12 253 0.0 0.0 0.18 0.38 0.33 97 1007.3
20260506134548 12 253 0.0 0.0 0.15 0.33 0.28 97 1007.0
20260506133046 12 253 0.0 0.0 0.13 0.25 0.20 97 1006.7
20260506131543 12 284 0.0 0.0 0.15 0.25 0.20 97 1006.8
20260506130037 12 284 0.0 0.0 0.10 0.20 0.15 97 1006.5
20260506124510 12 284 0.0 0.0 0.08 0.15 0.10 97 1006.8
20260506123010 12 284 0.0 0.0 0.05 0.13 0.08 97 1007.2
20260506121551 12 284 0.0 0.0 0.03 0.10 0.05 97 1007.3
20260506120051 12 284 0.0 0.0 0.03 0.10 0.05 97 1007.6
20260506114533 12 284 0.0 0.0 0.03 0.08 0.03 97 1007.2
20260506113033 12 284 0.0 0.0 0.03 0.08 0.03 96 1006.4
20260506111515 12 284 0.0 0.0 0.03 0.08 0.03 96 1006.8
20260506110015 12 284 0.0 0.0 0.03 0.08 0.03 96 1007.1
20260506104557 11 284 0.0 0.0 0.00 0.05 0.00 96 1006.9
20260506103056 11 284 0.0 0.0 0.00 0.05 0.00 96 1006.7
20260506101537 11 283 0.0 0.0 0.00 0.05 0.00 96 1006.8
20260506100039 11 283 0.0 0.0 0.00 0.05 0.00 96 1006.6
20260506094523 11 283 0.0 0.0 0.00 0.05 0.00 96 1006.5
20260506093019 11 283 0.0 0.0 0.00 0.05 0.00 95 1006.5
20260506091501 11 283 0.0 0.0 0.00 0.05 0.00 95 1006.3
20260506090059 11 283 0.0 0.0 0.00 0.05 0.00 95 1006.7
20260506084543 12 283 0.0 0.0 0.00 0.05 0.00 95 1006.8
20260506083039 12 283 0.0 0.0 0.00 0.05 0.00 94 1006.8
20260506081522 12 283 0.0 0.0 0.00 0.05 0.00 94 1007.0
20260506073059 12 283 0.0 0.0 0.00 0.05 0.00 93 1007.5
20260506071551 12 283 0.0 0.0 0.00 0.05 0.00 93 1007.5
20260506061545 13 283 0.0 0.0 0.00 0.05 0.00 92 1007.8
20260506044607 15 283 0.0 0.0 0.05 0.05 0.00 92 1008.0
20260506043051 15 283 0.0 0.0 0.05 0.05 0.00 91 1008.1
20260506041533 16 283 0.0 0.0 0.05 0.05 0.05 88 1007.7
20260506040031 16 283 0.0 1.6 0.00 0.00 0.00 84 1007.7
20260506034513 16 283 0.0 3.2 0.00 0.00 0.00 83 1007.7
20260506033012 17 281 0.0 4.8 0.00 0.00 0.00 83 1007.8
20260506031558 17 286 0.0 6.4 0.00 0.00 0.00 82 1007.5
20260506030052 17 279 1.6 6.4 0.00 0.00 0.00 85 1007.3
20260506024544 16 267 0.0 3.2 0.00 0.00 0.00 85 1007.1
20260506023034 16 273 0.0 0.0 0.00 0.00 0.00 87 1007.1
20260506021517 17 273 0.0 0.0 0.00 0.00 0.00 85 1007.1
20260506020015 17 273 0.0 0.0 0.00 0.00 0.00 83 1007.0
20260506014616 17 273 0.0 0.0 0.00 0.00 0.00 84 1006.6
20260506013056 17 273 0.0 0.0 0.00 0.00 0.00 84 1006.6
20260506011556 17 273 0.0 0.0 0.00 0.00 0.00 83 1006.5
20260506010037 17 273 0.0 0.0 0.00 0.00 0.00 83 1006.2
20260506004537 17 272 0.0 0.0 0.00 0.00 0.00 81 1006.3
20260506003021 17 272 0.0 0.0 0.00 0.00 0.00 78 1005.9
20260506001525 17 272 0.0 0.0 0.00 0.00 0.00 76 1005.7